This demonstration page uses our WeatherBlox Daily Observations layout. Learn more.

Left ArrowRight Arrow

39.08367, -84.50855

Hourly Observations for March 8, 2018

Temp ( °F °C ) Dew Point ( °F °C ) Humidity (%) Winds ( mph kmh ) Pressure ( in mb ) Visibility ( mi km ) Precip ( " mm )
12:53 am 00:53 Cloudy 32 0 25 -3.9 75 75 W 9 15 30.01 1016 10 16.0934 0 0
1:53 am 01:53 Cloudy 33 0.6 25 -3.9 72 72 W 8 13 29.99 1016 10 16.0934 0 0
2:53 am 02:53 Cloudy 32 0 25 -3.9 75 75 SW 8 13 29.97 1015 10 16.0934 0 0
3:43 am 03:43 Cloudy with Light Snow 31 -0.6 27 -2.8 85 85 W 16 26 30 1016 2 3.21868 0 0.0254
3:51 am 03:51 Cloudy with Light Snow 30 -1 27 -3 86 86 WNW 10 17 30 1016 4 6.43736 0 0.0254
3:53 am 03:53 Cloudy with Light Snow 31 -0.6 26 -3.3 82 82 NW 12 19 29.98 1015 6 9.65604 0 0.0254
4:53 am 04:53 Cloudy 30 -1.1 23 -5 75 75 WNW 8 13 29.98 1015 10 16.0934 0 0.0254
5:53 am 05:53 Cloudy 30 -1.1 23 -5 75 75 NW 6 9 29.98 1015 10 16.0934 0 0
6:04 am 06:04 Cloudy 30 -1.1 23 -5 75 75 W 10 17 30 1016 10 16.0934 0 0
6:38 am 06:38 Cloudy 30 -1.1 24 -4.4 79 79 W 7 11 30 1016 10 16.0934 0 0
6:53 am 06:53 Cloudy 30 -1.1 24 -4.4 79 79 W 9 15 29.99 1016 10 16.0934 0 0
7:15 am 07:15 Cloudy with Light Snow 30 -1.1 24 -4.4 79 79 NW 15 24 30.03 1017 2 3.21868 0 0.0254
7:20 am 07:20 Cloudy with Light Snow 28 -2.2 25 -3.9 88 88 NNW 15 24 30.03 1017 1 1.60934 0 0.0254
7:45 am 07:45 Cloudy 29 -1.7 23 -5 78 78 VRB 6 9 30.03 1017 10 16.0934 0 0.0254
7:53 am 07:53 Mostly Cloudy 29 -1.7 22 -5.6 75 75 W 8 13 30.01 1016 10 16.0934 0 0.0254
8:53 am 08:53 Mostly Cloudy 30 -1.1 19 -7.2 64 64 NW 8 13 30.02 1017 10 16.0934 0 0
9:53 am 09:53 Mostly Cloudy 30 -1.1 18 -7.8 61 61 W 10 17 30.04 1017 10 16.0934 0 0
10:53 am 10:53 Cloudy 31 -0.6 19 -7.2 61 61 NW 12 19 30.04 1017 10 16.0934 0 0.0254
11:53 am 11:53 Cloudy 32 0 18 -7.8 56 56 W 18 30 30.04 1017 10 16.0934 0 0.0254
12:44 pm 12:44 Cloudy with Light Snow 30 -1.1 22 -5.6 72 72 NW 14 22 30.06 1018 2.5 4.02335 0 0.0254
12:53 pm 12:53 Cloudy with Light Snow 30 -1.1 21 -6.1 69 69 WNW 9 15 30.04 1017 5 8.0467 0 0.0254
1:53 pm 13:53 Cloudy 31 -0.6 19 -7.2 61 61 WNW 12 19 30.04 1017 7 11.26538 0 0.0254
2:53 pm 14:53 Cloudy 31 -0.6 18 -7.8 59 59 W 17 28 30.04 1017 7 11.26538 0 0.0254
3:53 pm 15:53 Cloudy 32 0 17 -8.3 54 54 W 12 19 30.05 1018 10 16.0934 0 0
4:53 pm 16:53 Cloudy 31 -0.6 18 -7.8 59 59 W 14 22 30.06 1018 10 16.0934 0 0.0254
5:53 pm 17:53 Cloudy 31 -0.6 18 -7.8 59 59 W 14 22 30.08 1019 10 16.0934 0 0.0254
6:53 pm 18:53 Cloudy 30 -1.1 18 -7.8 61 61 WNW 14 22 30.09 1019 10 16.0934 0 0
7:53 pm 19:53 Cloudy with Light Snow 30 -1.1 19 -7.2 64 64 W 14 22 30.1 1019 9 14.48406 0 0.0254
8:53 pm 20:53 Cloudy 30 -1.1 19 -7.2 64 64 W 12 19 30.1 1019 10 16.0934 0 0.0254
9:53 pm 21:53 Cloudy 30 -1.1 18 -7.8 61 61 W 13 20 30.1 1019 10 16.0934 0 0
10:53 pm 22:53 Cloudy 30 -1.1 16 -8.9 56 56 W 12 19 30.1 1019 10 16.0934 0 0
11:53 pm 23:53 Cloudy 30 -1.1 16 -8.9 56 56 WSW 12 19 30.09 1019 10 16.0934 0 0

Powered by AerisWeather